Time,TemperatureF,DewpointF,PressureIn,WindDirection,WindDirectionDegrees,WindSpeedMPH,WindSpeedGustMPH,Humidity,HourlyPrecipIn,Conditions,Clouds,dailyrainin,SoftwareType,DateUTC
2013-02-16 00:00:00,43.0,-99.9,29.90,SSW,202,12.0,14.0,-999,-99.99,,,-99.99,,2013-02-16 05:00:00,
2013-02-16 00:42:00,43.0,-99.9,29.90,SSW,202,12.0,14.0,-999,-99.99,,,-99.99,,2013-02-16 05:42:00,
2013-02-16 00:52:00,43.0,-99.9,29.90,SSW,202,12.0,14.0,-999,-99.99,,,-99.99,,2013-02-16 05:52:00,
2013-02-16 01:30:00,43.0,-99.9,29.88,SSW,210,11.0,13.0,-999,-99.99,,,-99.99,,2013-02-16 06:30:00,
2013-02-16 02:00:00,43.0,-99.9,29.88,SSW,209,11.0,13.0,-999,-99.99,,,-99.99,,2013-02-16 07:00:00,
2013-02-16 02:02:00,43.0,-99.9,29.88,SSW,210,11.0,13.0,-999,-99.99,,,-99.99,,2013-02-16 07:02:00,
2013-02-16 02:11:00,43.0,-99.9,29.88,SSW,210,11.0,13.0,-999,-99.99,,,-99.99,,2013-02-16 07:11:00,
2013-02-16 02:22:00,43.0,-99.9,29.88,SSW,210,11.0,13.0,-999,-99.99,,,-99.99,,2013-02-16 07:22:00,
2013-02-16 02:42:00,43.0,-99.9,29.88,SSW,209,11.0,13.0,-999,-99.99,,,-99.99,,2013-02-16 07:42:00,
2013-02-16 02:53:00,43.0,-99.9,29.88,SSW,209,11.0,13.0,-999,-99.99,,,-99.99,,2013-02-16 07:53:00,
2013-02-16 03:00:00,43.0,-99.9,29.88,SW,236,10.0,12.0,-999,-99.99,,,-99.99,,2013-02-16 08:00:00,
2013-02-16 03:42:00,43.0,-99.9,29.88,SW,236,10.0,12.0,-999,-99.99,,,-99.99,,2013-02-16 08:42:00,
2013-02-16 03:52:00,43.0,-99.9,29.88,SW,236,10.0,12.0,-999,-99.99,,,-99.99,,2013-02-16 08:52:00,
2013-02-16 04:00:00,43.0,-99.9,29.87,SSW,211,9.0,12.0,-999,-99.99,,,-99.99,,2013-02-16 09:00:00,
2013-02-16 04:43:00,43.0,-99.9,29.87,SSW,211,9.0,12.0,-999,-99.99,,,-99.99,,2013-02-16 09:43:00,
2013-02-16 04:52:00,43.0,-99.9,29.87,SSW,211,9.0,12.0,-999,-99.99,,,-99.99,,2013-02-16 09:52:00,
2013-02-16 05:00:00,42.0,-99.9,29.85,South,191,8.0,10.0,-999,-99.99,,,-99.99,,2013-02-16 10:00:00,
2013-02-16 05:42:00,42.0,-99.9,29.85,South,191,8.0,10.0,-999,-99.99,,,-99.99,,2013-02-16 10:42:00,
2013-02-16 05:52:00,42.0,-99.9,29.85,South,191,8.0,10.0,-999,-99.99,,,-99.99,,2013-02-16 10:52:00,
2013-02-16 06:00:00,42.0,-99.9,29.85,SSW,197,6.0,9.0,-999,-99.99,,,-99.99,,2013-02-16 11:00:00,
2013-02-16 06:42:00,42.0,-99.9,29.85,SSW,197,6.0,9.0,-999,-99.99,,,-99.99,,2013-02-16 11:42:00,
2013-02-16 06:52:00,42.0,-99.9,29.85,SSW,197,6.0,9.0,-999,-99.99,,,-99.99,,2013-02-16 11:52:00,
2013-02-16 07:00:00,42.0,-99.9,29.85,SSW,199,6.0,7.0,-999,-99.99,,,-99.99,,2013-02-16 12:00:00,
2013-02-16 07:42:00,42.0,-99.9,29.85,SSW,199,6.0,7.0,-999,-99.99,,,-99.99,,2013-02-16 12:42:00,
2013-02-16 07:52:00,42.0,-99.9,29.85,SSW,199,6.0,7.0,-999,-99.99,,,-99.99,,2013-02-16 12:52:00,
2013-02-16 08:00:00,43.0,-99.9,29.86,SSW,192,9.0,11.0,-999,-99.99,,,-99.99,,2013-02-16 13:00:00,
2013-02-16 08:42:00,43.0,-99.9,29.86,SSW,192,9.0,11.0,-999,-99.99,,,-99.99,,2013-02-16 13:42:00,
2013-02-16 08:52:00,43.0,-99.9,29.86,SSW,192,9.0,11.0,-999,-99.99,,,-99.99,,2013-02-16 13:52:00,
2013-02-16 09:00:00,43.0,-99.9,29.86,SSW,207,12.0,14.0,-999,-99.99,,,-99.99,,2013-02-16 14:00:00,
2013-02-16 09:42:00,43.0,-99.9,29.86,SSW,207,12.0,14.0,-999,-99.99,,,-99.99,,2013-02-16 14:42:00,
2013-02-16 09:52:00,43.0,-99.9,29.86,SSW,207,12.0,14.0,-999,-99.99,,,-99.99,,2013-02-16 14:52:00,
2013-02-16 10:00:00,42.0,-99.9,29.86,WSW,250,11.0,15.0,-999,-99.99,,,-99.99,,2013-02-16 15:00:00,
2013-02-16 10:42:00,42.0,-99.9,29.86,WSW,250,11.0,15.0,-999,-99.99,,,-99.99,,2013-02-16 15:42:00,
2013-02-16 10:52:00,42.0,-99.9,29.86,WSW,250,11.0,15.0,-999,-99.99,,,-99.99,,2013-02-16 15:52:00,
2013-02-16 11:00:00,39.0,-99.9,29.85,NNW,327,9.0,10.0,-999,-99.99,,,-99.99,,2013-02-16 16:00:00,
2013-02-16 11:42:00,39.0,-99.9,29.85,NNW,327,9.0,10.0,-999,-99.99,,,-99.99,,2013-02-16 16:42:00,
2013-02-16 11:52:00,39.0,-99.9,29.85,NNW,327,9.0,10.0,-999,-99.99,,,-99.99,,2013-02-16 16:52:00,
2013-02-16 12:00:00,39.0,-99.9,29.82,NNE,28,9.0,10.0,-999,-99.99,,,-99.99,,2013-02-16 17:00:00,
2013-02-16 12:42:00,39.0,-99.9,29.82,NNE,28,9.0,10.0,-999,-99.99,,,-99.99,,2013-02-16 17:42:00,
2013-02-16 12:52:00,39.0,-99.9,29.82,NNE,28,9.0,10.0,-999,-99.99,,,-99.99,,2013-02-16 17:52:00,
2013-02-16 13:00:00,38.0,-99.9,29.80,North,7,11.0,13.0,-999,-99.99,,,-99.99,,2013-02-16 18:00:00,
2013-02-16 13:42:00,38.0,-99.9,29.80,North,7,11.0,13.0,-999,-99.99,,,-99.99,,2013-02-16 18:42:00,
2013-02-16 13:52:00,38.0,-99.9,29.80,North,7,11.0,13.0,-999,-99.99,,,-99.99,,2013-02-16 18:52:00,
2013-02-16 15:00:00,38.0,-99.9,29.78,North,2,15.0,18.0,-999,-99.99,,,-99.99,,2013-02-16 20:00:00,
2013-02-16 15:42:00,38.0,-99.9,29.78,North,2,15.0,18.0,-999,-99.99,,,-99.99,,2013-02-16 20:42:00,
2013-02-16 15:52:00,38.0,-99.9,29.78,North,2,15.0,18.0,-999,-99.99,,,-99.99,,2013-02-16 20:52:00,
2013-02-16 16:00:00,37.0,-99.9,29.78,North,3,18.0,21.0,-999,-99.99,,,-99.99,,2013-02-16 21:00:00,
2013-02-16 16:42:00,37.0,-99.9,29.78,North,3,18.0,21.0,-999,-99.99,,,-99.99,,2013-02-16 21:42:00,
2013-02-16 16:52:00,37.0,-99.9,29.78,North,3,18.0,21.0,-999,-99.99,,,-99.99,,2013-02-16 21:52:00,
2013-02-16 17:30:00,35.0,-99.9,29.76,North,360,21.0,24.0,-999,-99.99,,,-99.99,,2013-02-16 22:30:00,
2013-02-16 17:42:00,35.0,-99.9,29.77,North,350,21.0,24.0,-999,-99.99,,,-99.99,,2013-02-16 22:42:00,
2013-02-16 17:52:00,35.0,-99.9,29.77,North,350,21.0,24.0,-999,-99.99,,,-99.99,,2013-02-16 22:52:00,
2013-02-16 18:02:00,35.0,-99.9,29.76,North,360,21.0,24.0,-999,-99.99,,,-99.99,,2013-02-16 23:02:00,
2013-02-16 18:11:00,35.0,-99.9,29.76,North,360,21.0,24.0,-999,-99.99,,,-99.99,,2013-02-16 23:11:00,
2013-02-16 18:22:00,35.0,-99.9,29.76,North,360,21.0,24.0,-999,-99.99,,,-99.99,,2013-02-16 23:22:00,
2013-02-16 18:30:00,34.0,-99.9,29.75,North,2,22.0,25.0,-999,-99.99,,,-99.99,,2013-02-16 23:30:00,
2013-02-16 18:42:00,35.0,-99.9,29.76,North,8,21.0,24.0,-999,-99.99,,,-99.99,,2013-02-16 23:42:00,
2013-02-16 18:52:00,35.0,-99.9,29.76,North,8,21.0,24.0,-999,-99.99,,,-99.99,,2013-02-16 23:52:00,
2013-02-16 19:02:00,34.0,-99.9,29.75,North,2,22.0,25.0,-999,-99.99,,,-99.99,,2013-02-17 00:02:00,
2013-02-16 19:12:00,34.0,-99.9,29.75,North,2,22.0,25.0,-999,-99.99,,,-99.99,,2013-02-17 00:12:00,
2013-02-16 19:22:00,34.0,-99.9,29.75,North,2,22.0,25.0,-999,-99.99,,,-99.99,,2013-02-17 00:22:00,
2013-02-16 19:30:00,34.0,-99.9,29.74,North,357,24.0,28.0,-999,-99.99,,,-99.99,,2013-02-17 00:30:00,
2013-02-16 19:42:00,34.0,-99.9,29.75,North,357,22.0,26.0,-999,-99.99,,,-99.99,,2013-02-17 00:42:00,
2013-02-16 19:52:00,34.0,-99.9,29.75,North,357,22.0,26.0,-999,-99.99,,,-99.99,,2013-02-17 00:52:00,
2013-02-16 20:01:00,34.0,-99.9,29.74,North,357,24.0,28.0,-999,-99.99,,,-99.99,,2013-02-17 01:01:00,
2013-02-16 20:11:00,34.0,-99.9,29.74,North,357,24.0,28.0,-999,-99.99,,,-99.99,,2013-02-17 01:11:00,
2013-02-16 20:22:00,34.0,-99.9,29.74,North,357,24.0,28.0,-999,-99.99,,,-99.99,,2013-02-17 01:22:00,
2013-02-16 20:30:00,33.0,-99.9,29.72,North,353,26.0,29.0,-999,-99.99,,,-99.99,,2013-02-17 01:30:00,
2013-02-16 20:42:00,33.0,-99.9,29.73,North,356,24.0,29.0,-999,-99.99,,,-99.99,,2013-02-17 01:42:00,
2013-02-16 20:52:00,33.0,-99.9,29.73,North,356,24.0,29.0,-999,-99.99,,,-99.99,,2013-02-17 01:52:00,
2013-02-16 21:01:00,33.0,-99.9,29.72,North,353,26.0,29.0,-999,-99.99,,,-99.99,,2013-02-17 02:01:00,
2013-02-16 21:11:00,33.0,-99.9,29.72,North,353,26.0,29.0,-999,-99.99,,,-99.99,,2013-02-17 02:11:00,
2013-02-16 21:21:00,33.0,-99.9,29.72,North,353,26.0,29.0,-999,-99.99,,,-99.99,,2013-02-17 02:21:00,
2013-02-16 21:30:00,32.0,-99.9,29.72,North,355,25.0,29.0,-999,-99.99,,,-99.99,,2013-02-17 02:30:00,
2013-02-16 21:42:00,33.0,-99.9,29.73,North,360,24.0,28.0,-999,-99.99,,,-99.99,,2013-02-17 02:42:00,
2013-02-16 21:52:00,33.0,-99.9,29.73,North,360,24.0,28.0,-999,-99.99,,,-99.99,,2013-02-17 02:52:00,
2013-02-16 22:02:00,32.0,-99.9,29.72,North,355,25.0,29.0,-999,-99.99,,,-99.99,,2013-02-17 03:02:00,
2013-02-16 22:11:00,32.0,-99.9,29.72,North,355,25.0,29.0,-999,-99.99,,,-99.99,,2013-02-17 03:11:00,
2013-02-16 22:21:00,32.0,-99.9,29.72,North,355,25.0,29.0,-999,-99.99,,,-99.99,,2013-02-17 03:21:00,
2013-02-16 22:30:00,31.0,-99.9,29.69,North,356,28.0,32.0,-999,-99.99,,,-99.99,,2013-02-17 03:30:00,
2013-02-16 22:42:00,32.0,-99.9,29.71,North,355,26.0,29.0,-999,-99.99,,,-99.99,,2013-02-17 03:42:00,
2013-02-16 22:52:00,32.0,-99.9,29.71,North,355,26.0,29.0,-999,-99.99,,,-99.99,,2013-02-17 03:52:00,
2013-02-16 23:01:00,31.0,-99.9,29.69,North,356,28.0,32.0,-999,-99.99,,,-99.99,,2013-02-17 04:01:00,
2013-02-16 23:11:00,31.0,-99.9,29.69,North,356,28.0,32.0,-999,-99.99,,,-99.99,,2013-02-17 04:11:00,
2013-02-16 23:22:00,31.0,-99.9,29.69,North,356,28.0,32.0,-999,-99.99,,,-99.99,,2013-02-17 04:22:00,
2013-02-16 23:30:00,32.0,-99.9,29.66,North,2,27.0,34.0,-999,-99.99,,,-99.99,,2013-02-17 04:30:00,
2013-02-16 23:42:00,31.0,-99.9,29.68,North,4,29.0,35.0,-999,-99.99,,,-99.99,,2013-02-17 04:42:00,
2013-02-16 23:52:00,31.0,-99.9,29.68,North,4,29.0,35.0,-999,-99.99,,,-99.99,,2013-02-17 04:52:00,